sat.trackr.live / text

‹ back to catalog

STARLINK-2486

NORAD 48143 · 2021-027BD

PAYLOAD ACTIVE UNKNOWN

§ Identity

Operator
Country
US
Launch date
2021-04-07
Launch site
AFETR
Launch vehicle
Mass (kg)
RCS (m²)

Purposes: comms

External: N2YO · Heavens-Above · Gunter

§ Orbital elements

Epoch: 2026-09-19T17:35:48.827328Z

Period
92.99 min
Inclination
53.1518°
Eccentricity
0.0005431
Mean motion
15.48612847 rev/d
Perigee alt
417.1 km
Apogee alt
424.5 km
Semi-major
6,798.9 km
B*
8.8337e-4
RAAN
267.2441°
Arg perigee
47.9595°
Mean anomaly
312.1875°
Rev number
30,329

§ Raw data

STARLINK-24861 48143U 21027BD  26262.73320402  .00047814  00000+0  88337-3 0  99962 48143  53.1518 267.2441 0005431  47.9595 312.1875 15.48612847303293

JSON: /api/v1/satellites/48143 · /tle

For live sub-satellite position, see the globe view (requires WebGL).

§ Visibility from observer

Set your observer location to see the next 7 days of passes ≥ 10°. The values pass through the URL so the page stays shareable.

No JS? Fill the form by hand. The geolocation button needs JavaScript.